GOES 19

Last updated on Tue Jan 14 2025 00:02:18 GMT+0000 (Coordinated Universal Time)

1 60133U 24119A 25013.31716359 -.00000182 00000+0 00000+0 0 9996 2 60133 0.0080 125.9398 0001801 203.9061 167.8579 1.00272015 1755
UTC large
Height (km)
Speed (km/s)
/
Latitude / Longitude
Inclination (degrees)
Orbital Period (minutes)
Azimuth
Elevation
Range (km)
Doppler Factor

Next 0 passes for location: London (51.5072 / 0.1276)

Sorry there are no passes over London.